When you browse on this site, cookies collect data to enhance your experience and personalize the content and advertising you see.
Visit our Privacy Policy to learn more. By continuing to use the site, you agree to this use of cookies and data.
  • In Schweiz
  • Länderverzeichnis
  • Für 7 Tage
  • Wassertemperatur
  • Satellitenkarten
  • Wetterkarte
  • Widgets
  • user-avatar
    Anmelden

    Stündliche Wetter Canillo

    Heute, 25 Mai, Samstag

    Zeit Temperatur Niederschläge Wind Luftdruck Luftfeuchtigkeit
    00:00 +5°C° 1.1 mm 2 m/S 616 mmHg 97%
    01:00 +5°C° 1.2 mm 2 m/S 616 mmHg 97%
    02:00 +5°C° 1.2 mm 2 m/S 616 mmHg 97%
    03:00 +5°C° 1.2 mm 2 m/S 616 mmHg 97%
    04:00 +5°C° 1.1 mm 2 m/S 616 mmHg 97%
    05:00 +4°C° 1.1 mm 3 m/S 616 mmHg 97%
    06:00 +4°C° 1.1 mm 3 m/S 616 mmHg 97%
    07:00 +4°C° 1.1 mm 3 m/S 617 mmHg 96%
    08:00 +4°C° 1.1 mm 3 m/S 617 mmHg 95%
    09:00 +4°C° 1.1 mm 3 m/S 617 mmHg 94%
    10:00 +5°C° 0.6 mm 3 m/S 617 mmHg 92%
    11:00 +5°C° 0.6 mm 3 m/S 617 mmHg 90%
    12:00 +5°C° 0.6 mm 3 m/S 617 mmHg 88%
    13:00 +7°C° 0.1 mm 3 m/S 618 mmHg 84%
    14:00 +8°C° 0.1 mm 3 m/S 618 mmHg 81%
    15:00 +9°C° 0.1 mm 3 m/S 618 mmHg 77%
    16:00 +8°C° 0.1 mm 3 m/S 618 mmHg 79%
    17:00 +7°C° 0.1 mm 3 m/S 618 mmHg 82%
    18:00 +7°C° 0.1 mm 3 m/S 617 mmHg 84%
    19:00 +5°C° 0.1 mm 3 m/S 618 mmHg 87%
    20:00 +4°C° 0.1 mm 3 m/S 618 mmHg 90%
    21:00 +4°C° 0.1 mm 3 m/S 618 mmHg 93%
    22:00 +4°C° 0 mm 3 m/S 618 mmHg 93%
    23:00 +4°C° 0 mm 3 m/S 618 mmHg 93%

    Morgen, 26 Mai, Sonntag

    Zeit Temperatur Niederschläge Wind Luftdruck Luftfeuchtigkeit
    00:00 +4°C° 0 mm 3 m/S 618 mmHg 93%
    01:00 +4°C° 0 mm 2 m/S 618 mmHg 93%
    02:00 +4°C° 0 mm 2 m/S 617 mmHg 93%
    03:00 +3°C° 0 mm 2 m/S 617 mmHg 94%
    04:00 +4°C° 0 mm 2 m/S 617 mmHg 91%
    05:00 +4°C° 0 mm 2 m/S 617 mmHg 88%
    06:00 +4°C° 0 mm 2 m/S 617 mmHg 86%
    07:00 +5°C° 0 mm 3 m/S 618 mmHg 81%
    08:00 +7°C° 0 mm 3 m/S 619 mmHg 77%
    09:00 +9°C° 0 mm 3 m/S 619 mmHg 73%
    10:00 +9°C° 0 mm 3 m/S 619 mmHg 69%
    11:00 +10°C° 0 mm 3 m/S 620 mmHg 66%
    12:00 +11°C° 0 mm 3 m/S 620 mmHg 63%
    13:00 +11°C° 0 mm 3 m/S 620 mmHg 61%
    14:00 +12°C° 0 mm 3 m/S 620 mmHg 59%
    15:00 +12°C° 0 mm 3 m/S 619 mmHg 57%
    16:00 +11°C° 0 mm 3 m/S 619 mmHg 62%
    17:00 +10°C° 0 mm 3 m/S 618 mmHg 67%
    18:00 +9°C° 0 mm 3 m/S 618 mmHg 72%
    19:00 +7°C° 0 mm 3 m/S 618 mmHg 78%
    20:00 +6°C° 0 mm 2 m/S 617 mmHg 85%
    21:00 +4°C° 0 mm 2 m/S 617 mmHg 92%
    22:00 +5°C° 0.1 mm 2 m/S 617 mmHg 91%
    23:00 +5°C° 0.1 mm 2 m/S 617 mmHg 90%

    übermorgen, 27 Mai, Montag

    Zeit Temperatur Niederschläge Wind Luftdruck Luftfeuchtigkeit
    00:00 +6°C° 0.1 mm 2 m/S 617 mmHg 89%
    01:00 +6°C° 0.1 mm 2 m/S 617 mmHg 91%
    02:00 +5°C° 0.1 mm 2 m/S 616 mmHg 92%
    03:00 +5°C° 0.1 mm 2 m/S 616 mmHg 94%
    04:00 +6°C° 0 mm 2 m/S 616 mmHg 91%
    05:00 +6°C° 0 mm 2 m/S 616 mmHg 89%
    06:00 +6°C° 0 mm 2 m/S 616 mmHg 87%
    07:00 +8°C° 0 mm 2 m/S 617 mmHg 80%
    08:00 +10°C° 0 mm 3 m/S 618 mmHg 72%
    09:00 +11°C° 0 mm 3 m/S 618 mmHg 65%
    10:00 +12°C° 0 mm 3 m/S 619 mmHg 61%
    11:00 +13°C° 0 mm 3 m/S 619 mmHg 58%
    12:00 +14°C° 0 mm 3 m/S 619 mmHg 55%
    13:00 +14°C° 0.1 mm 3 m/S 618 mmHg 57%
    14:00 +14°C° 0.1 mm 3 m/S 618 mmHg 58%
    15:00 +13°C° 0.1 mm 3 m/S 618 mmHg 60%
    16:00 +12°C° 0.1 mm 3 m/S 617 mmHg 66%
    17:00 +12°C° 0.1 mm 2 m/S 617 mmHg 72%
    18:00 +10°C° 0.1 mm 2 m/S 616 mmHg 78%
    19:00 +8°C° 0 mm 2 m/S 616 mmHg 83%
    20:00 +7°C° 0 mm 2 m/S 616 mmHg 88%
    21:00 +5°C° 0 mm 2 m/S 616 mmHg 93%
    22:00 +5°C° 0 mm 2 m/S 615 mmHg 93%
    23:00 +4°C° 0 mm 2 m/S 615 mmHg 92%

    28 Mai, Dienstag

    Zeit Temperatur Niederschläge Wind Luftdruck Luftfeuchtigkeit
    00:00 +4°C° 0 mm 2 m/S 615 mmHg 92%
    01:00 +4°C° 0 mm 2 m/S 615 mmHg 92%
    02:00 +4°C° 0 mm 2 m/S 614 mmHg 93%
    03:00 +4°C° 0 mm 2 m/S 614 mmHg 93%
    04:00 +5°C° 0 mm 2 m/S 615 mmHg 92%
    05:00 +5°C° 0 mm 2 m/S 615 mmHg 91%
    06:00 +6°C° 0 mm 2 m/S 616 mmHg 89%
    07:00 +6°C° 0 mm 2 m/S 616 mmHg 86%
    08:00 +6°C° 0 mm 2 m/S 616 mmHg 82%
    09:00 +7°C° 0 mm 2 m/S 616 mmHg 78%
    10:00 +7°C° 0.1 mm 2 m/S 616 mmHg 77%
    11:00 +7°C° 0.1 mm 3 m/S 616 mmHg 77%
    12:00 +7°C° 0.1 mm 3 m/S 616 mmHg 76%
    13:00 +7°C° 0.1 mm 3 m/S 616 mmHg 78%
    14:00 +7°C° 0.1 mm 3 m/S 616 mmHg 79%
    15:00 +7°C° 0.1 mm 3 m/S 616 mmHg 81%
    16:00 +5°C° 0.1 mm 3 m/S 616 mmHg 81%
    17:00 +5°C° 0.1 mm 3 m/S 616 mmHg 81%
    18:00 +4°C° 0.1 mm 3 m/S 616 mmHg 81%
    19:00 +3°C° 0 mm 3 m/S 616 mmHg 84%
    20:00 +1°C° 0 mm 3 m/S 616 mmHg 86%
    21:00 0°C° 0 mm 3 m/S 616 mmHg 88%
    22:00 0°C° 0 mm 3 m/S 616 mmHg 89%
    23:00 0°C° 0 mm 3 m/S 616 mmHg 89%

    29 Mai, Mittwoch

    Zeit Temperatur Niederschläge Wind Luftdruck Luftfeuchtigkeit
    00:00 0°C° 0 mm 3 m/S 616 mmHg 89%
    01:00 0°C° 0 mm 3 m/S 616 mmHg 90%
    02:00 -1°C° 0 mm 3 m/S 616 mmHg 90%
    03:00 -1°C° 0 mm 2 m/S 616 mmHg 91%
    04:00 -1°C° 0 mm 3 m/S 617 mmHg 87%
    05:00 0°C° 0 mm 3 m/S 617 mmHg 83%
    06:00 +1°C° 0 mm 3 m/S 618 mmHg 78%
    07:00 +2°C° 0 mm 3 m/S 619 mmHg 71%
    08:00 +4°C° 0 mm 3 m/S 619 mmHg 63%
    09:00 +7°C° 0 mm 3 m/S 620 mmHg 55%
    10:00 +7°C° 0 mm 4 m/S 621 mmHg 50%
    11:00 +8°C° 0 mm 4 m/S 621 mmHg 45%
    12:00 +10°C° 0 mm 4 m/S 621 mmHg 40%
    13:00 +10°C° 0 mm 4 m/S 621 mmHg 42%
    14:00 +10°C° 0 mm 4 m/S 621 mmHg 44%
    15:00 +10°C° 0 mm 4 m/S 621 mmHg 45%
    16:00 +8°C° 0 mm 4 m/S 621 mmHg 53%
    17:00 +8°C° 0 mm 3 m/S 620 mmHg 60%
    18:00 +7°C° 0 mm 3 m/S 620 mmHg 67%
    19:00 +4°C° 0 mm 3 m/S 620 mmHg 75%
    20:00 +3°C° 0 mm 2 m/S 620 mmHg 83%
    21:00 +2°C° 0 mm 2 m/S 620 mmHg 91%
    22:00 +1°C° 0 mm 2 m/S 620 mmHg 91%
    23:00 +1°C° 0 mm 2 m/S 620 mmHg 91%

    30 Mai, Donnerstag

    Zeit Temperatur Niederschläge Wind Luftdruck Luftfeuchtigkeit
    00:00 +1°C° 0 mm 2 m/S 620 mmHg 91%
    01:00 +1°C° 0 mm 2 m/S 620 mmHg 92%
    02:00 +1°C° 0 mm 2 m/S 620 mmHg 92%
    03:00 +1°C° 0 mm 2 m/S 620 mmHg 92%
    04:00 +2°C° 0 mm 2 m/S 620 mmHg 86%
    05:00 +3°C° 0 mm 2 m/S 621 mmHg 81%
    06:00 +3°C° 0 mm 2 m/S 621 mmHg 75%
    07:00 +6°C° 0 mm 2 m/S 622 mmHg 63%
    08:00 +8°C° 0 mm 2 m/S 623 mmHg 51%
    09:00 +12°C° 0 mm 2 m/S 624 mmHg 39%
    10:00 +13°C° 0 mm 2 m/S 624 mmHg 38%
    11:00 +14°C° 0 mm 2 m/S 624 mmHg 37%
    12:00 +16°C° 0 mm 2 m/S 625 mmHg 36%
    13:00 +16°C° 0 mm 2 m/S 624 mmHg 38%
    14:00 +16°C° 0 mm 2 m/S 624 mmHg 40%
    15:00 +16°C° 0 mm 2 m/S 624 mmHg 43%
    16:00 +14°C° 0 mm 2 m/S 623 mmHg 50%
    17:00 +13°C° 0 mm 2 m/S 622 mmHg 57%
    18:00 +10°C° 0 mm 2 m/S 622 mmHg 65%
    19:00 +8°C° 0 mm 2 m/S 621 mmHg 74%
    20:00 +7°C° 0 mm 1 m/S 621 mmHg 83%
    21:00 +5°C° 0 mm 1 m/S 620 mmHg 92%
    22:00 +5°C° 0 mm 1 m/S 620 mmHg 86%
    23:00 +5°C° 0 mm 1 m/S 619 mmHg 81%
    Mehr zeigen